• In Netherlands
  • List of Countries
  • For 7 days
  • Water Temperature
  • Satellite Maps
  • Weather Map
  • Weather Widgets
  • user-avatar
    Login

    Hourly Weather Sharan

    Today, 21 January, Saturday

    Time Temperature Precipitation Wind Pressure Humidity
    00:00 -4°C° 0 mm 2 mps 585 mmHg 46%
    01:00 -4°C° 0 mm 2 mps 585 mmHg 45%
    02:00 -4°C° 0 mm 2 mps 585 mmHg 45%
    03:00 -4°C° 0 mm 2 mps 585 mmHg 44%
    04:00 -4°C° 0 mm 2 mps 585 mmHg 44%
    05:00 -5°C° 0 mm 2 mps 584 mmHg 44%
    06:00 -5°C° 0 mm 2 mps 584 mmHg 43%
    07:00 -5°C° 0 mm 2 mps 584 mmHg 42%
    08:00 -5°C° 0 mm 2 mps 584 mmHg 42%
    09:00 -3°C° 0 mm 2 mps 585 mmHg 41%
    10:00 -2°C° 0 mm 2 mps 586 mmHg 41%
    11:00 +1°C° 0 mm 2 mps 587 mmHg 41%
    12:00 +2°C° 0 mm 2 mps 587 mmHg 42%
    13:00 +2°C° 0 mm 2 mps 586 mmHg 43%
    14:00 +3°C° 0 mm 2 mps 586 mmHg 44%
    15:00 +2°C° 0 mm 2 mps 586 mmHg 46%
    16:00 +2°C° 0 mm 2 mps 585 mmHg 48%
    17:00 +2°C° 0 mm 1 mps 585 mmHg 50%
    18:00 +1°C° 0 mm 1 mps 585 mmHg 50%
    19:00 +1°C° 0 mm 1 mps 586 mmHg 50%
    20:00 0°C° 0 mm 1 mps 586 mmHg 50%
    21:00 0°C° 0 mm 1 mps 586 mmHg 51%
    22:00 -2°C° 0 mm 2 mps 586 mmHg 52%
    23:00 -3°C° 0 mm 2 mps 586 mmHg 53%

    Tomorrow, 22 January, Sunday

    Time Temperature Precipitation Wind Pressure Humidity
    00:00 -3°C° 0 mm 2 mps 586 mmHg 53%
    01:00 -3°C° 0 mm 2 mps 586 mmHg 53%
    02:00 -3°C° 0 mm 2 mps 586 mmHg 54%
    03:00 -3°C° 0 mm 2 mps 586 mmHg 55%
    04:00 -3°C° 0 mm 2 mps 586 mmHg 55%
    05:00 -4°C° 0 mm 2 mps 586 mmHg 56%
    06:00 -3°C° 0 mm 2 mps 586 mmHg 57%
    07:00 -3°C° 0 mm 2 mps 586 mmHg 57%
    08:00 -3°C° 0 mm 2 mps 587 mmHg 57%
    09:00 -2°C° 0 mm 2 mps 587 mmHg 56%
    10:00 -1°C° 0 mm 2 mps 588 mmHg 54%
    11:00 +1°C° 0 mm 2 mps 588 mmHg 53%
    12:00 +1°C° 0 mm 2 mps 588 mmHg 53%
    13:00 +2°C° 0 mm 2 mps 588 mmHg 53%
    14:00 +2°C° 0 mm 2 mps 587 mmHg 54%
    15:00 +2°C° 0.1 mm 2 mps 587 mmHg 57%
    16:00 +1°C° 0.1 mm 2 mps 587 mmHg 60%
    17:00 +2°C° 0.1 mm 1 mps 586 mmHg 64%
    18:00 -1°C° 0.1 mm 2 mps 587 mmHg 66%
    19:00 -1°C° 0.1 mm 2 mps 587 mmHg 68%
    20:00 -2°C° 0.1 mm 2 mps 587 mmHg 70%
    21:00 -2°C° 0 mm 2 mps 587 mmHg 70%
    22:00 -3°C° 0 mm 2 mps 587 mmHg 69%
    23:00 -3°C° 0 mm 2 mps 586 mmHg 69%

    Day after tomorrow, 23 January, Monday

    Time Temperature Precipitation Wind Pressure Humidity
    00:00 -3°C° 0 mm 2 mps 586 mmHg 67%
    01:00 -3°C° 0 mm 2 mps 586 mmHg 65%
    02:00 -3°C° 0 mm 2 mps 586 mmHg 64%
    03:00 -3°C° 0 mm 2 mps 586 mmHg 64%
    04:00 -3°C° 0 mm 2 mps 586 mmHg 65%
    05:00 -3°C° 0 mm 2 mps 586 mmHg 65%
    06:00 -3°C° 0.1 mm 2 mps 586 mmHg 67%
    07:00 -2°C° 0.1 mm 2 mps 586 mmHg 69%
    08:00 -2°C° 0.1 mm 2 mps 586 mmHg 71%
    09:00 -2°C° 0.9 mm 2 mps 586 mmHg 76%
    10:00 -2°C° 0.9 mm 2 mps 586 mmHg 81%
    11:00 -2°C° 0.9 mm 2 mps 586 mmHg 86%
    12:00 -2°C° 0.9 mm 2 mps 585 mmHg 87%
    13:00 -1°C° 0.9 mm 2 mps 585 mmHg 88%
    14:00 -1°C° 0.9 mm 2 mps 584 mmHg 90%
    15:00 -1°C° 0.5 mm 2 mps 584 mmHg 89%
    16:00 -1°C° 0.5 mm 2 mps 584 mmHg 89%
    17:00 -1°C° 0.5 mm 2 mps 584 mmHg 89%
    18:00 -1°C° 0.4 mm 2 mps 584 mmHg 89%
    19:00 -2°C° 0.4 mm 2 mps 584 mmHg 90%
    20:00 -2°C° 0.4 mm 2 mps 584 mmHg 90%
    21:00 0°C° 0.1 mm 1 mps 584 mmHg 90%
    22:00 0°C° 0.1 mm 1 mps 584 mmHg 91%
    23:00 0°C° 0.1 mm 1 mps 584 mmHg 91%

    24 January, Tuesday

    Time Temperature Precipitation Wind Pressure Humidity
    00:00 0°C° 0 mm 1 mps 584 mmHg 92%
    01:00 0°C° 0 mm 1 mps 583 mmHg 93%
    02:00 0°C° 0 mm 1 mps 583 mmHg 93%
    03:00 0°C° 0 mm 1 mps 583 mmHg 94%
    04:00 0°C° 0 mm 1 mps 582 mmHg 94%
    05:00 0°C° 0 mm 1 mps 582 mmHg 94%
    06:00 0°C° 0 mm 1 mps 583 mmHg 94%
    07:00 0°C° 0 mm 1 mps 583 mmHg 94%
    08:00 0°C° 0 mm 1 mps 583 mmHg 94%
    09:00 +1°C° 0 mm 1 mps 584 mmHg 94%
    10:00 +2°C° 0 mm 1 mps 584 mmHg 95%
    11:00 +2°C° 0 mm 1 mps 585 mmHg 95%
    12:00 +3°C° 0.1 mm 1 mps 584 mmHg 95%
    13:00 +3°C° 0.1 mm 1 mps 584 mmHg 96%
    14:00 +3°C° 0.1 mm 1 mps 583 mmHg 96%
    15:00 +2°C° 0.1 mm 1 mps 583 mmHg 95%
    16:00 +1°C° 0.1 mm 0 mps 582 mmHg 94%
    17:00 0°C° 0.1 mm 0 mps 582 mmHg 93%
    18:00 0°C° 0.1 mm 0 mps 582 mmHg 93%
    19:00 0°C° 0.1 mm 1 mps 582 mmHg 93%
    20:00 0°C° 0.1 mm 1 mps 583 mmHg 93%
    21:00 0°C° 0.2 mm 1 mps 583 mmHg 93%
    22:00 0°C° 0.2 mm 1 mps 583 mmHg 93%
    23:00 0°C° 0.2 mm 1 mps 583 mmHg 93%

    25 January, Wednesday

    Time Temperature Precipitation Wind Pressure Humidity
    00:00 0°C° 0.4 mm 1 mps 583 mmHg 93%
    01:00 0°C° 0.4 mm 1 mps 583 mmHg 93%
    02:00 0°C° 0.4 mm 1 mps 582 mmHg 93%
    03:00 0°C° 0.5 mm 1 mps 582 mmHg 92%
    04:00 0°C° 0.5 mm 1 mps 582 mmHg 92%
    05:00 -3°C° 0.5 mm 2 mps 582 mmHg 92%
    06:00 -3°C° 0.3 mm 2 mps 582 mmHg 91%
    07:00 -3°C° 0.3 mm 2 mps 582 mmHg 90%
    08:00 -3°C° 0.3 mm 2 mps 582 mmHg 90%
    09:00 -3°C° 0.4 mm 2 mps 582 mmHg 89%
    10:00 -2°C° 0.4 mm 2 mps 583 mmHg 89%
    11:00 -1°C° 0.4 mm 2 mps 583 mmHg 88%
    12:00 -1°C° 1.1 mm 2 mps 582 mmHg 90%
    13:00 +1°C° 1.1 mm 1 mps 582 mmHg 91%
    14:00 +1°C° 1.1 mm 1 mps 581 mmHg 93%
    15:00 0°C° 0.6 mm 1 mps 581 mmHg 93%
    16:00 0°C° 0.6 mm 1 mps 581 mmHg 93%
    17:00 0°C° 0.6 mm 1 mps 581 mmHg 93%
    18:00 -1°C° 0.2 mm 1 mps 581 mmHg 93%
    19:00 -1°C° 0.2 mm 1 mps 581 mmHg 94%
    20:00 -2°C° 0.2 mm 1 mps 581 mmHg 94%
    21:00 -2°C° 0.3 mm 1 mps 581 mmHg 93%
    22:00 -2°C° 0.3 mm 1 mps 581 mmHg 93%
    23:00 -2°C° 0.3 mm 1 mps 582 mmHg 92%

    26 January, Thursday

    Time Temperature Precipitation Wind Pressure Humidity
    00:00 -2°C° 0.4 mm 1 mps 582 mmHg 92%
    01:00 -2°C° 0.4 mm 1 mps 581 mmHg 92%
    02:00 -2°C° 0.4 mm 1 mps 581 mmHg 92%
    03:00 -4°C° 0.4 mm 2 mps 581 mmHg 92%
    04:00 -4°C° 0.4 mm 2 mps 581 mmHg 92%
    05:00 -4°C° 0.4 mm 2 mps 581 mmHg 92%
    06:00 -3°C° 0.2 mm 1 mps 581 mmHg 92%
    07:00 -3°C° 0.2 mm 1 mps 581 mmHg 92%
    08:00 -3°C° 0.2 mm 1 mps 581 mmHg 92%
    09:00 -2°C° 0.1 mm 1 mps 582 mmHg 89%
    10:00 -1°C° 0.1 mm 1 mps 582 mmHg 86%
    11:00 -1°C° 0.1 mm 1 mps 583 mmHg 84%
    12:00 0°C° 0 mm 1 mps 582 mmHg 84%
    13:00 -2°C° 0 mm 2 mps 582 mmHg 84%
    14:00 -2°C° 0 mm 2 mps 581 mmHg 84%
    15:00 -3°C° 0 mm 2 mps 580 mmHg 86%
    16:00 -4°C° 0 mm 2 mps 580 mmHg 88%
    17:00 -5°C° 0 mm 2 mps 579 mmHg 90%
    18:00 -6°C° 0 mm 2 mps 579 mmHg 92%
    19:00 -8°C° 0 mm 2 mps 578 mmHg 93%
    20:00 -9°C° 0 mm 2 mps 578 mmHg 95%
    21:00 -9°C° 0 mm 2 mps 579 mmHg 94%
    22:00 -8°C° 0 mm 1 mps 580 mmHg 94%
    23:00 -7°C° 0 mm 1 mps 580 mmHg 94%
    Show more